Location: *
(44.1392°N, 4.8079°E)
Time: 06:39:49
(UTC+00:00)

Cosmos 1825 - Pass Details

Date: 21 June 2021
Orbit: 501 x 506 km, 82.5° (Epoch: 31 July)

Event Time Altitude Azimuth Distance (km) Brightness Sun altitude
Exits shadow 01:29:09 19° 272° (W) 1,252 3.9 -18.1°
Maximum altitude 01:29:51 20° 288° (WNW) 1,216 4.0 -18.1°
Drops below altitude 10° 01:32:43 10° 337° (NNW) 1,727 5.4 -17.9°
Sets 01:35:17 0° 355° (N) 2,617 6.8 -17.7°
